[[{"header":{"parameterUnit":"m.s-1","parameterCategory":1,"la1":30.2991,"la2":30.254,"lo1":-89.0895,"lo2":-89.0444,"dy":0.0017,"dx":0.0017,"nx":28,"ny":28,"refTime":"2025-09-19T09:00:00:Z","depth":0,"parameterNumber":2,"parameterNumberName":"U-component_of_WINDS"},"data":[0,0,0,0,0,0,0,0,0,0,0,0,0,0,0,0,0,0,0,0,0,0,0,0,0,0,0,0,0,0,0,0,0,0,0,0,0,0,0,0,0,0,0,0,0,0,0,0,0,0,0,0,0,0,0,0,0,0,0.3777,0.3778,0,0.3823,0.3824,0.3824,0.3854,0.3854,0.3855,0.3855,0.39,0.3901,0.3902,0,0,0,0,0,0,0,0,0,0,0,0,0,0.3713,0.3714,0.3777,0.3778,0.3778,0.3823,0.3824,0.3824,0.3854,0.3854,0.3855,0.3855,0.3899,0.39,0.3902,0,0,0,0,0,0,0,0,0,0,0,0,0,0.3748,0.3714,0.3777,0.3799,0.3801,0.3823,0.3824,0.3824,0.3854,0.3854,0.3855,0.3855,0.3899,0.39,0.3902,0.3905,0,0,0.3906,0.3907,0,0,0,0,0,0,0,0,0.3746,0.375,0.3795,0.3797,0.38,0.3833,0.3817,0.3851,0.3854,0.3834,0.3855,0.3855,0.3877,0.388,0.3888,0.3907,0.3909,0.3907,0.3907,0.3908,0.3908,0,0,0,0,0,0,0,0.3743,0.3748,0.3795,0.3796,0.3799,0.3805,0.3811,0.3824,0.3853,0.3836,0.3838,0.3843,0.3879,0.3887,0.389,0.391,0.3906,0.3908,0.3909,0.3909,0.3932,0.3932,0,0,0,0,0,0,0.3738,0.3746,0.3794,0.3797,0.3773,0.3806,0.3812,0.3822,0.3853,0.3858,0.3843,0.3844,0.3884,0.3888,0.3891,0.3896,0.3908,0.3909,0.391,0.3933,0.3932,0.3932,0,0,0,0,0,0,0.3736,0.3742,0.3792,0.3772,0.3779,0.3807,0.3818,0.3823,0.3831,0.3859,0.3864,0.3846,0.3884,0.3889,0.3901,0.3898,0.391,0.3912,0.3933,0.3933,0.3932,0.3907,0,0,0,0,0,0,0.3734,0.3741,0.3743,0.3772,0.378,0.3802,0.3818,0.3824,0.3834,0.3837,0.3863,0.3868,0.3885,0.3899,0.3903,0.3901,0.3913,0.3933,0.3933,0.3932,0.3908,0.3906,0.3904,0,0,0,0,0,0.3732,0.3734,0.3743,0.3749,0.3783,0.3802,0.3806,0.3827,0.3834,0.3836,0.3853,0.3867,0.3898,0.39,0.3905,0.3903,0.3934,0.3933,0.3932,0.3909,0.3906,0.3904,0,0,0,0,0,0,0.3703,0.3738,0.3749,0.376,0.3778,0.3807,0.381,0.3823,0.3839,0.384,0.3865,0.387,0.388,0.3893,0.3894,0.3907,0.3918,0.3918,0.3898,0.3896,0.3893,0.389,0.3914,0,0,0,0,0,0.3699,0.3712,0.3741,0.3748,0.3757,0.3782,0.3791,0.3805,0.3824,0.3831,0.385,0.3867,0.388,0.3889,0.3903,0.391,0.3916,0.3911,0.3909,0.3907,0.3907,0.391,0.3908,0.393,0.393,0.393,0,0,0.3689,0.3709,0.3716,0.3743,0.3759,0.377,0.3788,0.38,0.3808,0.3833,0.3845,0.3859,0.388,0.389,0.3895,0.3901,0.3902,0.3906,0.3904,0.3905,0.391,0.3908,0.3906,0.3929,0.393,0.393,0,0,0.3677,0.3694,0.3702,0.3717,0.374,0.3756,0.3758,0.3785,0.3795,0.3809,0.3827,0.3837,0.3861,0.3874,0.3884,0.3877,0.3889,0.3881,0.3868,0.3872,0.387,0.3869,0.3865,0.3863,0.388,0.388,0.388,0,0.3661,0.3681,0.3704,0.3715,0.3725,0.3749,0.3756,0.3769,0.3795,0.3802,0.3809,0.3838,0.3853,0.3866,0.3864,0.3872,0.3874,0.3877,0.3869,0.3867,0.3866,0.3863,0.3862,0.3879,0.3879,0.3879,0.3879,0,0.366,0.3673,0.3676,0.3701,0.3713,0.3722,0.3745,0.3754,0.3767,0.3783,0.3795,0.3815,0.3833,0.3837,0.385,0.3851,0.3854,0.3864,0.3875,0.3863,0.386,0.3859,0.3877,0.3878,0.3878,0.3878,0,0,0.3631,0.3669,0.3669,0.3681,0.3708,0.3718,0.3728,0.3746,0.3752,0.3769,0.3777,0.3796,0.3806,0.3817,0.3832,0.3835,0.3826,0.3845,0.3846,0.384,0.3827,0.3819,0.3817,0.3835,0.3835,0.3835,0.3825,0,0.3622,0.3641,0.3662,0.3673,0.3685,0.3707,0.3715,0.3732,0.3747,0.3758,0.3774,0.3787,0.3799,0.3806,0.381,0.3826,0.3824,0.3828,0.3841,0.3842,0.3835,0.3816,0.3807,0.3797,0.3824,0.3824,0.3824,0,0.3614,0.3631,0.3643,0.3669,0.3675,0.3682,0.37,0.3711,0.373,0.374,0.3752,0.3768,0.3778,0.3788,0.3802,0.3804,0.3811,0.382,0.382,0.3821,0.3831,0.3815,0.3794,0.3792,0.3823,0.3823,0.3823,0,0.3591,0.3616,0.3627,0.3636,0.3666,0.367,0.3683,0.3702,0.3712,0.3727,0.3733,0.375,0.3758,0.377,0.3789,0.3795,0.38,0.3812,0.3808,0.3807,0.3807,0.3807,0.3786,0.3813,0.3814,0.3814,0.3814,0,0.3578,0.3585,0.3616,0.3623,0.363,0.3654,0.3661,0.3675,0.3692,0.3701,0.3721,0.3729,0.3754,0.3764,0.378,0.3788,0.3792,0.38,0.3803,0.3797,0.3796,0.3801,0.3802,0.3813,0.3813,0.3813,0.3813,0,0.3553,0.3574,0.3587,0.3615,0.3622,0.3626,0.3649,0.3655,0.3671,0.3682,0.3686,0.371,0.3724,0.3744,0.3763,0.3774,0.3779,0.3786,0.3772,0.3774,0.3768,0.3768,0.3749,0.3747,0.3777,0.3777,0.3777,0,0.3543,0.3548,0.3576,0.3584,0.3596,0.3608,0.3618,0.3641,0.365,0.3672,0.3675,0.369,0.3703,0.3723,0.3742,0.3757,0.3763,0.3756,0.3765,0.3759,0.3762,0.3761,0.3761,0.3753,0.3752,0.3752,0.3752,0,0.3522,0.3533,0.3546,0.3564,0.3575,0.3589,0.3605,0.3609,0.3636,0.3645,0.3659,0.3669,0.3688,0.3702,0.3719,0.3731,0.3745,0.3749,0.3748,0.3741,0.3733,0.3736,0.3765,0.3749,0.3749,0.3749,0.3749,0.375,0.3504,0.3509,0.353,0.3544,0.3558,0.3572,0.3579,0.3596,0.3608,0.3626,0.3639,0.3652,0.367,0.3694,0.3706,0.3715,0.3721,0.3721,0.3721,0.372,0.3717,0.3732,0.3719,0.3719,0.3719,0.3719,0.3719,0,0.3483,0.3498,0.3511,0.3532,0.3542,0.3556,0.3573,0.3581,0.3592,0.3608,0.3621,0.3636,0.365,0.367,0.3685,0.3688,0.3695,0.3691,0.3691,0.3693,0.3711,0.371,0.3686,0.3686,0.3686,0.3686,0.3686,0.3686,0.3474,0.3484,0.3497,0.3513,0.3527,0.354,0.3549,0.3561,0.3574,0.3591,0.3602,0.3615,0.3633,0.3649,0.3662,0.3667,0.3671,0.3665,0.3672,0.3689,0.3692,0.3695,0.3693,0.3666,0.3666,0.3653,0.3653,0.3652]},{"header":{"parameterUnit":"m.s-1","parameterCategory":1,"la1":30.2991,"la2":30.254,"lo1":-89.0895,"lo2":-89.0444,"dy":0.0017,"dx":0.0017,"nx":28,"ny":28,"refTime":"2025-09-19T09:00:00:Z","depth":0,"parameterNumber":3,"parameterNumberName":"V-component_of_WINDS"},"data":[0,0,0,0,0,0,0,0,0,0,0,0,0,0,0,0,0,0,0,0,0,0,0,0,0,0,0,0,0,0,0,0,0,0,0,0,0,0,0,0,0,0,0,0,0,0,0,0,0,0,0,0,0,0,0,0,0,0,0.8453,0.8454,0,0.8516,0.8516,0.8517,0.8488,0.8486,0.8484,0.8483,0.8547,0.855,0.8553,0,0,0,0,0,0,0,0,0,0,0,0,0,0.8306,0.8309,0.8453,0.8454,0.8455,0.8516,0.8516,0.8517,0.8488,0.8486,0.8484,0.8482,0.8545,0.8549,0.8553,0,0,0,0,0,0,0,0,0,0,0,0,0,0.8369,0.831,0.8453,0.8447,0.8447,0.8515,0.8516,0.8518,0.8488,0.8486,0.8483,0.8481,0.8544,0.8549,0.8554,0.8631,0,0,0.8568,0.857,0,0,0,0,0,0,0,0,0.8366,0.8375,0.8447,0.8448,0.8448,0.8491,0.8488,0.8555,0.8489,0.8473,0.8483,0.848,0.853,0.8536,0.8553,0.8634,0.8636,0.8569,0.8571,0.8574,0.8575,0,0,0,0,0,0,0,0.8361,0.8372,0.8478,0.8448,0.8449,0.8441,0.8447,0.8501,0.8514,0.8474,0.8472,0.848,0.853,0.8548,0.8554,0.8637,0.8568,0.8573,0.8576,0.8577,0.8782,0.8785,0,0,0,0,0,0,0.8357,0.8369,0.8476,0.848,0.84,0.8446,0.8453,0.848,0.8513,0.8516,0.8482,0.8478,0.8541,0.8549,0.8556,0.8647,0.8573,0.8578,0.8581,0.878,0.8783,0.8786,0,0,0,0,0,0,0.8354,0.8367,0.8473,0.8424,0.8436,0.8451,0.8481,0.8482,0.8501,0.8519,0.8521,0.8498,0.854,0.855,0.8612,0.8649,0.858,0.8584,0.8777,0.8781,0.8784,0.8831,0,0,0,0,0,0,0.835,0.8366,0.8396,0.8424,0.8439,0.8529,0.8484,0.8485,0.8509,0.8505,0.8535,0.8538,0.8539,0.8605,0.8617,0.8655,0.8588,0.8773,0.8778,0.8783,0.8826,0.8836,0.8845,0,0,0,0,0,0.8345,0.8408,0.8398,0.8411,0.8477,0.8531,0.8539,0.8539,0.8512,0.8542,0.8554,0.8537,0.8643,0.8612,0.8625,0.8664,0.8771,0.8777,0.8783,0.8822,0.8834,0.8844,0,0,0,0,0,0,0.8384,0.8411,0.8401,0.8475,0.8501,0.8526,0.8564,0.8552,0.8586,0.8581,0.8578,0.8586,0.865,0.8663,0.8628,0.874,0.8703,0.8712,0.8729,0.874,0.8749,0.8744,0.8592,0,0,0,0,0,0.8401,0.8443,0.8464,0.8527,0.854,0.855,0.8573,0.8571,0.8597,0.8608,0.8624,0.8651,0.869,0.8716,0.8753,0.8828,0.8833,0.8862,0.8871,0.8878,0.8886,0.8924,0.8937,0.8805,0.8805,0.8805,0,0,0.8437,0.8457,0.8484,0.8535,0.8555,0.8598,0.8559,0.8607,0.8638,0.8615,0.8675,0.8688,0.8717,0.8785,0.8817,0.8799,0.8923,0.8885,0.8891,0.8895,0.8932,0.8944,0.8955,0.8809,0.8808,0.8807,0,0,0.8524,0.8544,0.8597,0.8618,0.8648,0.8653,0.8666,0.8693,0.87,0.876,0.8744,0.878,0.8848,0.8869,0.8889,0.8981,0.8967,0.8993,0.9041,0.9079,0.9089,0.9098,0.913,0.9142,0.9001,0.9001,0.9001,0,0.8565,0.8629,0.8627,0.8674,0.8697,0.8678,0.8731,0.8751,0.8792,0.8808,0.8787,0.887,0.8889,0.8961,0.8984,0.9,0.9014,0.899,0.9088,0.9097,0.9106,0.9136,0.9148,0.9004,0.9003,0.9003,0.9003,0,0.8677,0.8721,0.8761,0.88,0.8827,0.8877,0.8882,0.8909,0.8903,0.8911,0.8971,0.8992,0.9032,0.9049,0.9044,0.912,0.9108,0.9088,0.9051,0.9121,0.9149,0.9161,0.9008,0.9007,0.9006,0.9005,0,0,0.8792,0.8827,0.8842,0.8859,0.889,0.8923,0.8972,0.9011,0.9034,0.9063,0.9103,0.9159,0.914,0.9162,0.9159,0.9193,0.9263,0.9168,0.9169,0.9184,0.9346,0.9361,0.9375,0.9253,0.9256,0.9257,0.9343,0,0.888,0.8966,0.8964,0.9043,0.9083,0.9065,0.9107,0.913,0.9138,0.9172,0.918,0.922,0.9193,0.9205,0.9238,0.9248,0.9295,0.9241,0.929,0.9292,0.9283,0.939,0.9406,0.9486,0.9355,0.9357,0.9358,0,0.8995,0.9026,0.9109,0.9133,0.9149,0.9187,0.9222,0.9255,0.9281,0.9284,0.9307,0.9299,0.9347,0.9308,0.9374,0.9338,0.9357,0.9365,0.9368,0.9372,0.9329,0.9396,0.9512,0.9524,0.9376,0.9374,0.9373,0,0.9069,0.9132,0.9189,0.9204,0.9233,0.926,0.9273,0.9296,0.9319,0.9349,0.9363,0.9399,0.9418,0.9445,0.9445,0.9418,0.9512,0.9473,0.9515,0.9515,0.9535,0.9534,0.9655,0.9549,0.9549,0.9548,0.9548,0,0.9168,0.9219,0.9223,0.9258,0.9314,0.9311,0.9367,0.9377,0.9397,0.9433,0.942,0.9454,0.9453,0.9487,0.9488,0.9541,0.955,0.9553,0.9553,0.9555,0.9554,0.9567,0.9561,0.9552,0.9551,0.955,0.955,0,0.926,0.9265,0.9326,0.9347,0.9354,0.9394,0.9413,0.9445,0.9451,0.9497,0.9508,0.9516,0.9556,0.9559,0.9605,0.9605,0.967,0.9664,0.9662,0.966,0.9701,0.9697,0.9835,0.9852,0.9735,0.9736,0.9737,0,0.9323,0.9362,0.9387,0.941,0.9425,0.9462,0.9485,0.9483,0.9507,0.9537,0.9566,0.9605,0.9635,0.9699,0.9709,0.9744,0.9738,0.9783,0.9743,0.9742,0.9737,0.9735,0.9738,0.9791,0.9793,0.9794,0.9795,0,0.9433,0.9433,0.9467,0.95,0.9528,0.9555,0.9579,0.9599,0.96,0.9627,0.9667,0.9691,0.9737,0.9775,0.9808,0.9821,0.9808,0.9807,0.9818,0.982,0.9817,0.9818,0.9683,0.9804,0.9803,0.9802,0.9802,0.9802,0.9512,0.9545,0.9567,0.9605,0.9623,0.9646,0.9677,0.9686,0.972,0.9757,0.9753,0.9797,0.9819,0.9863,0.9878,0.9912,0.9896,0.9913,0.9917,0.9921,0.9925,0.9812,0.9918,0.9918,0.9918,0.9917,0.9917,0,0.9621,0.9634,0.9668,0.9703,0.9732,0.9716,0.9742,0.9767,0.9806,0.9828,0.9858,0.9903,0.9938,0.9951,0.9985,1.001,1.0005,1.0019,1.0017,1.002,0.9937,0.9924,1.0023,1.0023,1.0023,1.0022,1.0022,1.0022,0.9681,0.9735,0.9737,0.98,0.9812,0.9855,0.9871,0.9892,0.9909,0.996,0.9989,0.9997,1.0014,1.005,1.0081,1.0084,1.0097,1.0114,1.0114,1.0036,1.0026,1.0016,1.0003,1.0117,1.0117,1.0193,1.0194,1.0195]}]]